Location: Dalton
(42.4737°N, 73.1662°W)
Time: 12:52:17
(UTC+00:00)

ACS3 Solar Sail - Pass Details

Date: 24 September 2024
Orbit: 961 x 1035 km, 97.4° (Epoch: 08 October)

Event Time Altitude Azimuth Distance (km) Brightness Sun altitude
Exits shadow 01:50:06 30° 222° (SW) 1,753 3.1 -32.7°
Maximum altitude 01:52:26 40° 265° (W) 1,479 2.9 -33.1°
Drops below altitude 10° 01:58:27 10° 334° (NNW) 2,846 4.9 -34.0°
Sets 02:01:09 0° 342° (NNW) 3,798 5.6 -34.4°
